Regional Weather Roundup
Issued by NWS Jackson, KY

Home | Current Version | Previous Version | Graphics & Text | Print | Product List | Glossary On
Versions: 1 2 3 4 5 6 7 8 9 10 11 12 13 14 15 16 17 18 19 20 21 22 23 24 25 26 27 28
000
ASUS43 KJKL 070910
RWRJKL

EAST KENTUCKY HOURLY WEATHER ROUNDUP
NATIONAL WEATHER SERVICE JACKSON KY
400 AM EST WED DEC 07 2016

NOTE: "FAIR" INDICATES FEW OR NO CLOUDS BELOW 12,000 FEET WITH
NO SIGNIFICANT WEATHER AND/OR OBSTRUCTIONS TO VISIBILITY.

* THESE REPORTS ARE NOT UNDER NWS QUALITY CONTROL AND MAY NOT
  REPORT WEATHER SUCH AS PRECIPITATION AND FOG.

KYZ079-080-083-085-087-088-110-112-115-119-120-071000
...EASTERN KENTUCKY...

CITY           SKY/WX    TMP DP  RH WIND       PRES   REMARKS
JACKSON        CLOUDY    39  33  79 NW5       30.07R
LONDON         CLOUDY    39  34  82 CALM      30.08R
SOMERSET*      CLOUDY    37  32  81 N3        30.11R
MONTICELLO*    CLOUDY    39  36  89 NW6       30.11S WCI  35
WILLIAMSBURG*  CLOUDY    39  37  93 CALM      30.06F
MIDDLESBORO*   CLOUDY    42  35  77 N5        30.08S
HARLAN APT*    CLOUDY    41  34  75 CALM      30.06S
PIKE CO APT*   CLOUDY    39  36  87 W3        30.07R
BIG SANDY APT* CLOUDY    41  37  84 NW3       30.08R
MOREHEAD APT*  CLOUDY    34  30  86 CALM      30.11S
ASHLAND*       CLOUDY    37  30  75 N5        30.08R WCI  34
$$

KYZ035-036-041-042-044-050-067-078-099-071000
...CENTRAL KENTUCKY...

CITY           SKY/WX    TMP DP  RH WIND       PRES   REMARKS
MT STERLING*   CLOUDY    32  30  93 CALM      30.10S
FLEMING/MASON* MOCLDY    32  30  92 W5        30.09S WCI  27
DANVILLE*      CLOUDY    32  32 100 CALM      30.10S
LEXINGTON      MOCLDY    34  29  82 CALM      30.09S
FRANKFORT      PTCLDY    35  29  78 VRB3      30.08S
LOUISVILLE     CLOUDY    37  28  70 CALM      30.11S
LEBANON*         N/A     36  32  87 CALM      30.10S
GLASGOW*       PTCLDY   N/A N/A N/A CALM      30.11S
BOWLING GREEN  CLOUDY    36  34  92 CALM      30.13R
$$

KYZ091>093-OHZ055-061-077-WVZ005-015-034-035-042-071000
...SOUTHERN OHIO/WEST VIRGINIA...

CITY           SKY/WX    TMP DP  RH WIND       PRES   REMARKS
COVINGTON      MOCLDY    32  28  85 NW3       30.07S
COLUMBUS       PTCLDY    31  29  92 W7        30.03S WCI  24
DAYTON         PTCLDY    26  23  88 W8        30.05R WCI  18
WILMINGTON     PTCLDY    29  26  89 W7        30.05S WCI  22
HUNTINGTON     CLOUDY    39  33  79 N8        30.08R WCI  33
CHARLESTON     CLOUDY    42  34  73 W3        30.05R
PINEVILLE*     CLOUDY    41  36  81 MISG      30.09R
BECKLEY        CLOUDY    38  32  79 NW7       29.99S WCI  33
BLUEFIELD      CLOUDY    37  31  78 W8        30.00R WCI  31
LOGAN CO APT*  CLOUDY    41  36  81 CALM      30.04R
$$

VAZ002-007-008-TNZ017-027-036-066-071-071000
...SOUTHWEST VIRGINIA/EAST TENNESSEE...

CITY           SKY/WX    TMP DP  RH WIND       PRES   REMARKS
WISE*          CLOUDY    37  37 100 CALM      30.03S
JONESVILLE*      N/A    N/A N/A N/A CALM      30.07F
ABINGDON*      CLOUDY    43  35  73 NW3       30.02S
BRISTOL        PTCLDY    41  36  82 N5        30.04R
MORRISTOWN*    PTSUNNY   41  37  87 NE5       30.03S
SEVIERVILLE*   CLOUDY    43  39  87 CALM      30.05R
KNOXVILLE      CLOUDY    43  36  76 N10       30.04S
OAK RIDGE      CLOUDY    42  37  82 CALM      30.07S
CROSSVILLE     CLOUDY    38  33  82 N12       30.04S WCI  30
NASHVILLE      CLOUDY    40  33  76 N8        30.12R WCI  34
$$

...KEY TO REMARKS...
VSB - VISIBILITY IN MILES
WCI - WIND CHILL INDEX
HX  - HEAT INDEX

$$




USA.gov is the U.S. government's official web portal to all federal, state and local government web resources and services.